Flag for U.S.A. Weather past 2 weeks in Tacoma, Washington, U.S.A.

Now
56 °F

Clear.


Feels Like: 56 °F
Forecast: 54 / 78 °F
Wind: No wind

Location: Tacoma Narrows Airport

Current Time: Jul 28, 2015 at 4:17:42 AM

Latest Report: Jul 28, 2015 at 3:53 AM


Visibility: 10 mi

Pressure: 30.26 "Hg

Humidity: 87%

Dew point: 52 °F

Location of TacomaLocation

Historic Weather in Tacoma — Graph

°F

Tacoma temperature yesterday

Maximum temperature yesterday: 72 °F (at 3:53 PM)
Minimum temperature yesterday: 54 °F (at 2:53 AM)
Average temperature yesterday: 62 °F

Past Weeks' High & Low Weather Summary

 TemperatureHumidityPressure
High92 °F (Jul 19, 2:53 PM)100% (Jul 27, 5:53 AM)30.27 "Hg (Jul 27, 5:53 AM)
Low54 °F (Jul 27, 2:53 AM)20% (Jul 18, 4:53 PM)29.86 "Hg (Jul 22, 7:53 PM)
Average66 °F63%30.04 "Hg
* Reported Jul 13 2:53 AM — Jul 28 2:53 AM, Tacoma, Weather by CustomWeather, © 2015

Note: Actual official high and low records may vary slightly from our data, if they occured in-between our weather recording intervals... More about our weather records

Advertising

Tacoma weather history for previous 24 hours

 ConditionsComfort  
Time TempWeatherWind HumidityBarometerVisibility
2:53 AM
Tue, Jul 28
58 °FClear.No wind81%30.27 "Hg10 mi
1:53 AM59 °FClear.3 mph78%30.25 "Hg10 mi
12:53 AM60 °FPassing clouds.3 mph72%30.24 "Hg10 mi
11:53 PM
Mon, Jul 27
63 °FOvercast.6 mph65%30.24 "Hg10 mi
10:53 PM65 °FOvercast.5 mph59%30.23 "Hg10 mi
9:53 PM67 °FOvercast.5 mph57%30.23 "Hg10 mi
8:53 PM68 °FPartly sunny.No wind55%30.22 "Hg10 mi
7:53 PM70 °FBroken clouds.5 mph46%30.21 "Hg10 mi
6:53 PM71 °FBroken clouds.3 mph44%30.20 "Hg10 mi
5:53 PM72 °FBroken clouds.6 mph43%30.19 "Hg10 mi
4:53 PM70 °FBroken clouds.6 mph44%30.20 "Hg10 mi
3:53 PM72 °FPartly sunny.N/A40%30.20 "Hg10 mi
2:53 PM70 °FScattered clouds.No wind46%30.20 "Hg10 mi
1:53 PM68 °FScattered clouds.6 mph53%30.20 "Hg10 mi
12:53 PM66 °FScattered clouds.6 mph61%30.21 "Hg10 mi
11:53 AM63 °FScattered clouds.7 mph70%30.22 "Hg10 mi
10:53 AM61 °FPartly sunny.3 mph75%30.21 "Hg10 mi
9:53 AM58 °FLow clouds.No wind87%30.20 "Hg10 mi
8:53 AM56 °FMore clouds than sun.No wind93%30.19 "Hg10 mi
7:53 AM55 °FMostly cloudy.3 mph96%30.18 "Hg10 mi
6:53 AM54 °FMostly cloudy.5 mph97%30.18 "Hg10 mi
5:53 AM54 °FMostly cloudy.No wind100%30.16 "Hg10 mi
4:53 AM55 °FLow clouds.3 mph96%30.14 "Hg10 mi
4:00 AM55 °FFog.No wind96%30.13 "Hg2 mi
Weather by CustomWeather, © 2015

See weather overviewHow to use our weather pages